Location: Newark
(48.4472°N, 1.4892°E)
Time: 13:21:56
(UTC+00:00)

Transit 4A - Pass Details

Date: 20 January 2021
Orbit: 866 x 978 km, 66.8° (Epoch: 01 March)

Event Time Altitude Azimuth Distance (km) Brightness Sun altitude
Exits shadow 05:31:50 36° 266° (W) 1,423 8.3 -20.3°
Maximum altitude 05:32:40 38° 248° (WSW) 1,378 8.4 -20.2°
Drops below altitude 10° 05:38:07 10° 182° (S) 2,579 10.3 -19.3°
Sets 05:40:44 0° 174° (S) 3,499 11.1 -18.8°
